Date String (YYYY-MM-DD hh:mm:ss) UTC,Instrument flags,Ambient pressure (hPa),Sample flow (lpm),Bypass flow (lpm),Sample temperature (°C),Ambient temperature (°C),ASC tube jacket temperature (°C),LED temperature (°C),Box temperature (°C),Sample RH (%),Span deviation,Mass concentration (μg/m³),Mass concentration (μg/m³),Mass concentration (μg/m³)
DateTimeUTC,F1_M11,P_M11,Q1_M11,Q2_M11,T1_M11,T2_M11,T3_M11,T4_M11,T5_M11,U1_M11,ZSPAN_M11,X0_M11,X2_M11,X1_M11
2022-10-14 19:00:00,,0822.6,5.00,0.00,29.7,28.4,00.0,38.5,31.5,08.8,0000.0,0007.60,0003.48,0003.12
2022-10-14 19:01:00,,0822.6,5.00,0.00,29.7,28.5,00.0,38.5,31.6,08.9,0000.0,0007.60,0003.48,0003.12
2022-10-14 19:02:00,,0822.6,5.00,0.00,29.7,28.6,00.0,38.5,31.6,08.9,0000.0,0007.60,0003.49,0003.12
2022-10-14 19:03:00,,0822.6,5.00,0.00,29.8,28.7,00.0,38.5,31.6,08.8,0000.0,0007.74,0003.48,0003.13
2022-10-14 19:04:00,,0822.6,5.00,0.00,29.8,28.7,00.0,38.5,31.7,08.8,0000.0,0007.25,0003.46,0003.13
2022-10-14 19:05:00,,0822.6,5.00,0.00,29.8,28.8,00.0,38.6,31.7,08.9,0000.0,0005.99,0003.45,0003.14
2022-10-14 19:06:00,,0822.6,5.00,0.00,29.9,28.9,00.0,38.6,31.7,08.9,0000.0,0006.48,0003.43,0003.14
2022-10-14 19:07:00,,0822.6,4.99,0.00,29.9,28.9,00.0,38.6,31.8,08.7,0000.0,0006.49,0003.43,0003.14
2022-10-14 19:08:00,,0822.6,5.01,0.00,29.9,29.0,00.0,38.6,31.8,08.6,0000.0,0006.48,0003.41,0003.14
2022-10-14 19:09:00,,0822.6,5.00,0.00,30.0,29.1,00.0,38.7,31.9,08.9,0000.0,0006.31,0003.37,0003.14
2022-10-14 19:10:00,,0822.6,5.00,0.00,30.0,29.1,00.0,38.7,31.9,08.6,0000.0,0006.33,0003.36,0003.13
2022-10-14 19:11:00,,0822.6,4.99,0.00,30.1,29.0,00.0,38.7,32.0,08.5,0000.0,0006.59,0003.36,0003.13
2022-10-14 19:12:00,,0822.6,5.02,0.00,30.1,27.8,00.0,38.7,31.9,08.4,0000.0,0006.59,0003.36,0003.13
2022-10-14 19:13:00,,0822.6,5.00,0.00,30.0,26.5,00.0,38.7,31.7,08.6,0000.0,0007.30,0003.36,0003.13
2022-10-14 19:14:00,,0822.5,5.01,0.00,29.9,26.5,00.0,38.6,31.7,08.8,0000.0,0007.15,0003.38,0003.13
2022-10-14 19:15:00,,0822.4,4.99,0.00,29.9,26.8,00.0,38.6,31.5,08.8,0000.0,0007.04,0003.40,0003.13
2022-10-14 19:16:00,,0822.4,5.01,0.00,29.8,27.1,00.0,38.6,31.4,08.9,0000.0,0007.66,0003.42,0003.14
2022-10-14 19:17:00,,0822.4,5.00,0.00,29.8,27.5,00.0,38.6,31.5,09.1,0000.0,0008.11,0003.45,0003.13
2022-10-14 19:18:00,,0822.4,4.99,0.00,29.7,27.7,00.0,38.6,31.5,09.0,0000.0,0008.03,0003.45,0003.12
2022-10-14 19:19:00,,0822.4,5.01,0.00,29.7,28.0,00.0,38.6,31.5,08.7,0000.0,0008.12,0003.43,0003.12
2022-10-14 19:20:00,,0822.4,5.00,0.00,29.8,28.2,00.0,38.6,31.5,08.5,0000.0,0008.53,0003.46,0003.10
2022-10-14 19:21:00,,0822.5,5.00,0.00,29.8,28.4,00.0,38.6,31.6,08.6,0000.0,0008.80,0003.46,0003.08
2022-10-14 19:22:00,,0822.5,5.00,0.00,29.8,28.5,00.0,38.6,31.6,08.6,0000.0,0008.70,0003.48,0003.06
2022-10-14 19:23:00,,0822.6,5.01,0.00,29.8,28.6,00.0,38.6,31.7,08.8,0000.0,0008.92,0003.47,0003.04
2022-10-14 19:24:00,,0822.6,5.00,0.00,29.8,28.7,00.0,38.6,31.7,08.7,0000.0,0009.32,0003.44,0003.02
2022-10-14 19:25:00,,0822.6,5.00,0.00,29.9,28.8,00.0,38.6,31.8,08.7,0000.0,0009.31,0003.42,0003.02
2022-10-14 19:26:00,,0822.6,5.00,0.00,29.9,28.9,00.0,38.6,31.8,09.0,0000.0,0009.58,0003.41,0002.99
2022-10-14 19:27:00,,0822.6,5.00,0.00,29.9,29.0,00.0,38.7,31.8,09.1,0000.0,0009.72,0003.40,0002.96
2022-10-14 19:28:00,,0822.4,5.01,0.00,30.0,29.0,00.0,38.7,31.9,08.5,0000.0,0008.83,0003.37,0002.94
2022-10-14 19:29:00,,0822.4,5.00,0.00,30.0,29.1,00.0,38.7,31.9,08.4,0000.0,0008.82,0003.38,0002.93
2022-10-14 19:30:00,,0822.4,4.99,0.00,30.0,28.7,00.0,38.7,31.9,08.4,0000.0,0008.85,0003.39,0002.93
2022-10-14 19:31:00,,0822.4,4.99,0.00,30.0,27.1,00.0,38.7,31.8,08.6,0000.0,0008.67,0003.38,0002.93
2022-10-14 19:32:00,,0822.4,5.00,0.00,29.9,26.3,00.0,38.6,31.7,08.5,0000.0,0008.30,0003.37,0002.93
2022-10-14 19:33:00,,0822.4,5.01,0.00,29.9,26.5,00.0,38.6,31.6,08.5,0000.0,0008.65,0003.39,0002.92
2022-10-14 19:34:00,,0822.3,4.99,0.00,29.8,26.8,00.0,38.6,31.4,08.6,0000.0,0008.51,0003.39,0002.91
2022-10-14 19:35:00,,0822.3,5.01,0.00,29.7,27.2,00.0,38.6,31.4,08.6,0000.0,0007.91,0003.38,0002.89
2022-10-14 19:36:00,,0822.2,5.00,0.00,29.7,27.5,00.0,38.6,31.4,08.6,0000.0,0007.66,0003.37,0002.88
2022-10-14 19:37:00,,0822.2,4.99,0.00,29.7,27.8,00.0,38.5,31.5,08.6,0000.0,0007.34,0003.41,0002.87
2022-10-14 19:38:00,,0822.2,4.99,0.00,29.7,28.0,00.0,38.5,31.5,08.7,0000.0,0006.58,0003.40,0002.86
2022-10-14 19:39:00,,0822.2,5.02,0.00,29.7,28.2,00.0,38.5,31.5,08.7,0000.0,0006.46,0003.40,0002.85
2022-10-14 19:40:00,,0822.2,4.99,0.00,29.7,28.3,00.0,38.5,31.5,09.1,0000.0,0006.63,0003.40,0002.86
2022-10-14 19:41:00,,0822.2,5.00,0.00,29.7,28.5,00.0,38.5,31.6,08.7,0000.0,0007.29,0003.40,0002.85
2022-10-14 19:42:00,,0822.2,5.00,0.00,29.8,28.6,00.0,38.5,31.6,08.5,0000.0,0008.40,0003.39,0002.84
2022-10-14 19:43:00,,0822.3,5.00,0.00,29.8,28.7,00.0,38.6,31.6,08.7,0000.0,0009.21,0003.42,0002.84
2022-10-14 19:44:00,,0822.2,5.00,0.00,29.8,28.8,00.0,38.6,31.7,08.5,0000.0,0008.90,0003.39,0002.84
2022-10-14 19:45:00,,0822.2,5.00,0.00,29.9,28.8,00.0,38.6,31.8,08.5,0000.0,0009.20,0003.38,0002.84
2022-10-14 19:46:00,,0822.2,5.00,0.00,29.9,28.9,00.0,38.6,31.8,08.7,0000.0,0009.28,0003.42,0002.84
2022-10-14 19:47:00,,0822.1,5.00,0.00,29.9,28.6,00.0,38.6,31.8,08.3,0000.0,0009.28,0003.43,0002.84
2022-10-14 19:48:00,,0822.1,4.99,0.00,29.9,27.4,00.0,38.6,31.7,08.2,0000.0,0009.27,0003.41,0002.83
2022-10-14 19:49:00,,0822.0,5.00,0.00,29.9,27.0,00.0,38.5,31.7,08.2,0000.0,0009.32,0003.41,0002.83
2022-10-14 19:50:00,,0821.9,5.00,0.00,29.8,27.2,00.0,38.5,31.5,08.2,0000.0,0009.72,0003.41,0002.82
2022-10-14 19:51:00,,0822.0,4.99,0.00,29.8,27.5,00.0,38.5,31.5,08.2,0000.0,0010.33,0003.40,0002.81
2022-10-14 19:52:00,,0822.0,5.01,0.00,29.8,27.7,00.0,38.5,31.5,08.3,0000.0,0009.90,0003.37,0002.79
2022-10-14 19:53:00,,0822.0,4.99,0.00,29.8,28.0,00.0,38.5,31.6,08.3,0000.0,0009.50,0003.34,0002.78
2022-10-14 19:54:00,,0821.9,5.00,0.00,29.8,28.2,00.0,38.6,31.6,08.5,0000.0,0009.58,0003.33,0002.76
2022-10-14 19:55:00,,0822.0,5.01,0.00,29.8,28.4,00.0,38.6,31.6,08.4,0000.0,0009.58,0003.34,0002.74
2022-10-14 19:56:00,,0821.9,5.00,0.00,29.8,28.5,00.0,38.6,31.6,08.3,0000.0,0009.20,0003.33,0002.72
2022-10-14 19:57:00,,0822.0,5.00,0.00,29.8,28.7,00.0,38.6,31.7,08.5,0000.0,0010.06,0003.36,0002.71
2022-10-14 19:58:00,,0822.0,5.00,0.00,29.8,28.7,00.0,38.6,31.8,08.2,0000.0,0010.24,0003.36,0002.70
2022-10-14 19:59:00,,0822.0,5.00,0.00,29.9,28.8,00.0,38.6,31.7,08.2,0000.0,0010.26,0003.37,0002.69
